• Join FlightAware (Why Join?)
  • Login
  • US Flag 
04:54AM EST


 

Airport Tracker/Info


-or-


 

Live Flight TrackerFlight Track Log ✈ N680AN ✈ 02-May-2013 ✈ KDFW - KTUL

Flight Track Log - Related Links

Times and Time Zones

All times are in EDT time to prevent confusion due to time zone crossing. See the N680AN flight status page for this flight to view local times or setup timezone preferences in your user account.

Time Position Orientation Groundspeed Altitude Reporting Facility
EDT Latitude Longitude Course Direction KTS MPH feet Rate Location/Type
02:52PM 32.9000 -97.0333 347° North 131 151 1,700  Level Dallas / Fort Worth TRACON
02:53PM 32.9667 -97.0333 360° North 219 252 4,100 2,503 Climbing Dallas / Fort Worth TRACON
02:55PM 32.7653 -96.8567 77° East  Level FlightAware Approximate
02:56PM 32.8517 -96.8000 North  Level FlightAware Approximate
02:56PM 33.1144 -97.0192 North 262 302 10,000  Level Fort Worth Center
02:57PM 32.9717 -96.8000 North  Level FlightAware Approximate
02:57PM 33.2000 -97.0039 North 285 328 11,300  Level Fort Worth Center
02:58PM 33.0866 -96.8390 347° North  Level FlightAware Approximate
02:58PM 33.3003 -96.9883 North 346 398 13,700  Level Fort Worth Center
02:59PM 33.4044 -96.9706 North 370 426 15,900 2,150 Climbing Fort Worth Center
03:00PM 33.5089 -96.9375 15° North 377 434 18,000 1,950 Climbing Fort Worth Center
03:01PM 33.6172 -96.8972 17° North 394 453 19,800 1,700 Climbing Fort Worth Center
03:02PM 33.7192 -96.8567 18° North 409 471 21,400 1,750 Climbing Fort Worth Center
03:03PM 33.8442 -96.8108 17° North 420 483 23,300 1,700 Climbing Fort Worth Center
03:04PM 33.9631 -96.7625 19° North 430 495 24,800 1,650 Climbing Fort Worth Center
03:05PM 34.0881 -96.7114 19° North 449 517 26,600 1,950 Climbing Fort Worth Center
03:06PM 34.2108 -96.6625 18° North 461 531 28,700 1,200 Climbing Fort Worth Center
03:07PM 34.3356 -96.6111 19° North 461 531 29,000 150 Climbing Fort Worth Center
03:08PM 34.4583 -96.5572 20° North 461 531 29,000  Level Fort Worth Center
03:09PM 34.5831 -96.5031 20° North 461 531 29,000  Level Fort Worth Center
03:10PM 34.7081 -96.4461 21° North 467 537 29,000  Level Fort Worth Center
03:11PM 34.8306 -96.3917 20° North 467 537 29,000 -250 Level Fort Worth Center
03:12PM 34.9533 -96.3394 19° North 467 537 28,500 -1,150 Descending Fort Worth Center
03:13PM 35.0758 -96.2897 18° North 467 537 26,700 -1,750 Descending Fort Worth Center
03:14PM 35.1964 -96.2347 20° North 462 532 25,000 -1,736 Descending Fort Worth Center
03:15PM 35.3128 -96.1847 19° North 452 520 23,200 -1,943 Descending Fort Worth Center
03:17PM 35.5847 -96.0631 20° North 411 473 18,200 -1,877 Descending Kansas City Center
03:18PM 35.6881 -96.0167 20° North 398 458 16,600 -1,659 Descending Kansas City Center
03:19PM 35.7858 -95.9625 24° Northeast 391 450 14,800 -2,000 Descending Kansas City Center
03:20PM 35.8358 -95.8817 53° Northeast 382 440 13,200 -1,935 Descending Kansas City Center
03:20PM 35.8486 -95.8558 59° Northeast 382 440 12,800 -984 Descending Kansas City Center
03:21PM 35.8942 -95.7786 54° Northeast 364 419 12,200 -677 Descending Kansas City Center
03:21PM 35.9072 -95.7547 56° Northeast 368 423 12,100 -689 Descending Kansas City Center
03:22PM 35.9475 -95.6917 52° Northeast 305 351 11,500 -968 Descending Kansas City Center
03:22PM 35.9594 -95.6711 54° Northeast 319 367 11,100 -1,475 Descending Kansas City Center
03:23PM 35.9992 -95.6100 51° Northeast 300 345 10,000 -1,548 Descending Kansas City Center
03:23PM 36.0214 -95.5719 54° Northeast 306 352 9,500 -1,400 Descending Kansas City Center
03:24PM 36.0506 -95.5281 51° Northeast 300 345 8,600 -1,065 Descending Kansas City Center
03:24PM 36.0708 -95.4925 55° Northeast 297 342 8,400 -885 Descending Kansas City Center
03:25PM 36.0928 -95.4578 52° Northeast 244 281 7,700 -1,161 Descending Kansas City Center
03:25PM 36.1103 -95.4267 55° Northeast 249 287 7,200 -1,200 Descending Kansas City Center
03:26PM 36.1364 -95.3847 52° Northeast 239 275 6,500 -1,065 Descending Kansas City Center
03:26PM 36.1592 -95.3742 21° North 246 283 6,100 -885 Descending Kansas City Center
03:27PM 36.1864 -95.4036 319° Northwest 210 242 5,600 -581 Descending Kansas City Center
03:27PM 36.1919 -95.4247 288° West 213 245 5,500 -400 Descending Kansas City Center
03:28PM 36.1939 -95.4647 273° West 170 196 5,200 -484 Descending Kansas City Center
03:28PM 36.1956 -95.4856 276° West 190 219 5,000 -295 Descending Kansas City Center
03:29PM 36.1950 -95.5217 269° West 161 185 4,900 -290 Descending Kansas City Center
03:29PM 36.1953 -95.5403 271° West 172 198 4,700 -590 Descending Kansas City Center
03:30PM 36.1953 -95.5733 270° West 149 171 4,300 -581 Descending Kansas City Center
03:30PM 36.1953 -95.6047 270° West 160 184 4,100 -400 Descending Kansas City Center
03:31PM 36.1961 -95.6303 272° West 163 188 3,900 -492 Descending Kansas City Center
03:31PM 36.1956 -95.6614 269° West 161 185 3,600 -393 Descending Kansas City Center
03:32PM 36.1967 -95.6844 273° West 163 188 3,500 -231 Descending Kansas City Center